Location: Newark
(31.8769°N, 91.1411°W)
Time: 06:59:52
(UTC+00:00)

N. Korean satellite - Pass Details

Date: 02 February 2020
Orbit: 456 x 505 km, 97.2° (Epoch: 20 February)

Event Time Altitude Azimuth Distance (km) Brightness Sun altitude
Rises 11:45:41 0° 11° (N) 2,573 10.3 -15.6°
Reaches altitude 10° 11:47:45 10° 11° (N) 1,695 9.3 -15.1°
Maximum altitude 11:51:25 90° 139° (SE) 504 6.6 -14.4°
Drops below altitude 10° 11:55:05 10° 192° (SSW) 1,703 9.3 -13.6°
Sets 11:57:10 0° 192° (SSW) 2,586 10.3 -13.2°
